Location: Newark
(54.3386°S, 169.8415°W)
Time: 04:06:55
(UTC+00:00)

SR - Visible Passes

Search period start: 18 October 2019 00:00
Search period end: 28 October 2019 00:00
Orbit: 575 x 881 km, 66.7° (Epoch: 17 October)

Date Brightness Start Highest point End Pass type
(mag) Time Alt. Az. Time Alt. Az. Time Alt. Az.
18 Oct ? 07:56:44 10° W 07:58:14 12° WNW 07:59:44 10° NW visible
19 Oct ? 07:05:42 10° WSW 07:09:02 22° WNW 07:12:18 10° NNW visible
21 Oct ? 07:09:33 10° W 07:11:21 12° WNW 07:13:07 10° NW visible
